SWARM C

Last updated on Fri Dec 19 2025 00:03:36 GMT+0000 (Coordinated Universal Time)

1 39453U 13067C 25352.57805344 .00010585 00000+0 21184-3 0 9991 2 39453 87.3363 121.6983 0002242 92.8101 267.3414 15.46608157678255
UTC large
Height (km)
Speed (km/s)
/
Latitude / Longitude
Inclination (degrees)
Orbital Period (minutes)
Azimuth
Elevation
Range (km)
Doppler Factor

Next 0 passes for location: London (51.5072 / 0.1276)

Sorry there are no passes over London.